{"data":{"norad_id":46034,"epoch":"2026-09-19T20:10:18.552000Z","epoch_age_seconds":75211,"freshness":"FRESH","line1":"1 46034U 20055H   26262.84049250 -.00001057  00000+0 -22314-4 0  9999","line2":"2 46034  53.1608 303.9404 0001363  96.7781 263.3375 15.31695902338606","mean_motion":15.31695902,"eccentricity":0.0001363,"inclination_deg":53.1608,"raan_deg":303.9404,"arg_perigee_deg":96.7781,"mean_anomaly_deg":263.3375,"bstar":-2.2314e-5,"rev_number":33860,"period_min":94.013439490158,"perigee_km":469.81870757816,"apogee_km":471.68571477713,"semimajor_km":6848.8892111776,"source":"CELESTRAK","updated_at":"2026-09-20T09:00:38.460243Z"}}